Wind_Speed
24 23 22 21 21 20 20 19 17 14 13 12 12 12 12 12 12 12 14 16 17 18 20 18 19 16 11 10 12 11 9 10 6 8 12 15 16 15 15 16 15 13 9
24 23 22 21 19 20 20 19 17 16 13 11 11 11 10 11 12 13 15 15 16 19 21 21 20 15 9 7 8 11 12 12 13 15 13 14 16 14 16 14 13 12 11
24 24 23 22 21 22 20 17 16 15 14 13 12 10 9 11 12 13 14 15 17 18 18 17 16 15 10 5 7 12 14 15 12 17 13 14 14 14 16 12 12 11 11
24 24 24 24 23 20 18 16 15 15 15 13 10 9 8 8 11 13 13 14 13 13 12 13 13 13 9 3 8 11 19 18 11 13 14 17 13 16 14 14 14 12 10
24 24 24 20 19 17 15 14 14 15 14 11 9 7 5 7 6 13 10 8 8 10 10 10 9 9 3 3 9 12 19 16 12 11 16 17 15 16 15 13 13 13 10
24 23 20 19 18 17 13 13 14 14 12 10 7 4 1 4 8 7 6 6 7 8 9 8 7 9 5 3 6 14 16 15 11 8 15 18 16 15 15 14 14 12 10
22 21 21 20 19 16 13 14 15 15 13 10 6 3 1 3 3 5 4 4 5 7 9 8 7 7 6 9 15 14 12 5 10 4 11 15 19 15 17 13 9 10 6
20 20 21 21 20 17 16 16 16 15 13 10 7 5 3 3 3 4 4 3 5 7 9 8 7 8 9 15 18 15 11 9 7 4 9 13 16 14 17 14 16 10 7
18 19 20 21 20 18 17 17 16 14 12 9 7 6 5 6 5 4 5 4 5 7 7 8 6 7 9 12 13 17 15 9 9 10 11 14 16 16 18 15 13 9 7
17 15 15 15 17 17 17 18 15 13 11 9 8 7 8 6 5 4 4 4 5 5 6 6 6 7 8 9 11 13 14 13 13 11 13 14 18 18 19 11 13 12 8
17 17 17 14 12 16 18 17 17 14 12 11 9 8 6 6 7 8 6 6 6 5 4 4 2 5 6 9 8 9 13 17 17 13 14 15 13 15 16 12 9 8 7
18 21 17 24 17 14 19 16 15 16 16 11 8 5 3 2 5 7 8 7 5 3 2 2 3 7 7 7 4 6 8 10 12 14 13 14 15 15 14 14 11 8 4
20 22 21 24 24 14 15 15 12 13 13 12 7 3 2 1 3 9 6 9 8 2 2 1 8 10 9 6 6 8 8 6 8 9 11 10 11 12 11 12 10 8 6
21 25 24 26 25 15 14 14 9 8 8 8 7 4 2 1 4 6 6 6 7 3 3 2 8 8 5 6 5 6 4 4 5 4 5 7 7 8 10 12 11 10 10
22 23 24 26 32 27 17 14 13 10 5 7 8 4 1 2 4 6 6 5 4 3 2 2 6 6 5 4 4 5 4 4 5 3 4 8 9 9 9 9 8 11 9
23 22 24 22 24 24 25 27 23 19 13 13 9 9 4 3 1 2 2 2 3 1 2 4 4 2 3 6 6 5 5 5 5 6 7 7 8 9 10 9 10 9 9
27 25 26 25 23 25 23 24 31 22 20 14 8 8 3 3 4 3 4 5 4 2 2 4 6 6 6 6 4 5 6 4 9 11 8 8 8 7 8 6 7 11 12
30 32 30 28 25 24 20 17 20 23 17 13 11 9 5 6 4 4 1 2 4 2 2 3 4 4 5 5 6 6 6 3 8 10 12 11 11 11 9 8 8 11 13
29 27 23 21 19 17 17 15 13 14 14 14 13 8 9 5 8 7 5 2 3 2 1 1 2 4 5 4 5 5 4 3 3 10 13 13 12 12 13 11 10 15 13
27 27 24 21 21 19 17 15 14 13 12 9 11 9 7 9 4 3 2 1 2 3 1 2 3 3 4 5 6 6 8 7 6 3 3 9 15 16 15 14 13 14 17
21 30 29 23 19 17 16 15 14 14 12 10 9 8 13 14 3 0 2 2 2 2 3 3 3 3 5 7 6 6 6 7 8 9 8 7 4 7 18 17 13 14 16
19 21 21 20 19 16 14 14 12 13 12 10 13 10 19 9 3 3 1 1 2 3 3 3 3 3 4 5 6 6 7 7 6 10 12 11 11 10 9 13 23 17 17
17 15 18 17 17 19 16 13 13 10 10 9 9 14 10 7 3 3 2 2 0 1 3 2 3 3 4 4 4 7 5 3 7 10 12 13 15 14 12 15 13 19 22
18 19 18 18 16 14 13 13 12 11 12 11 10 10 9 8 5 4 3 2 1 1 4 4 4 4 6 5 5 4 6 4 9 10 10 12 15 16 16 16 16 18 20
13 15 17 18 16 15 14 12 12 12 13 12 10 9 8 6 6 4 2 1 1 1 3 4 3 6 7 9 7 5 9 12 13 14 14 13 16 19 20 21 21 21 21
14 14 14 14 14 14 14 13 11 11 10 10 10 8 7 5 3 2 1 1 2 3 5 4 6 7 9 9 9 13 17 15 16 17 18 17 19 20 19 20 20 22 23
Wind_Direction
207 211 215 218 219 222 226 232 236 240 243 250 262 275 285 291 294 295 295 295 299 301 305 306 304 306 286 264 241 227 185 167 128 115 139 147 143 142 144 147 147 148 147
209 210 212 215 215 220 226 230 232 234 237 248 257 270 281 290 297 298 298 303 307 307 308 309 309 313 297 260 217 204 179 162 154 135 144 140 151 153 155 157 153 157 151
205 208 209 211 214 220 226 230 229 230 231 239 249 260 280 294 299 298 301 307 309 310 313 316 317 323 312 259 210 186 165 154 149 145 145 148 155 151 150 156 153 144 146
204 207 210 213 218 224 229 227 225 223 223 229 240 254 272 290 301 302 308 310 311 313 323 330 339 339 325 266 189 180 163 154 162 159 145 148 157 160 157 153 153 156 148
204 206 211 213 214 216 219 221 219 215 216 219 227 237 269 300 305 309 315 313 317 331 335 337 344 351 309 217 185 160 152 151 160 156 147 156 170 180 169 178 159 156 160
205 207 206 204 204 207 209 213 206 202 200 197 207 228 246 317 312 328 347 332 354 351 0 3 11 23 36 146 150 144 159 161 168 174 164 162 165 190 164 183 166 166 162
202 205 202 200 202 208 208 198 194 192 185 184 178 156 86 16 347 349 24 12 12 17 14 14 37 46 81 119 133 134 138 169 167 171 171 167 162 184 164 173 170 173 160
201 198 199 201 203 199 190 185 184 184 181 169 155 140 109 44 346 355 50 15 13 23 26 34 52 87 112 129 135 142 147 150 137 140 157 160 163 163 171 165 173 160 129
203 202 193 189 186 182 180 178 177 166 152 146 143 126 100 55 43 34 37 19 18 36 38 47 60 97 121 132 145 148 150 153 154 141 142 157 160 158 156 156 162 172 171
185 193 188 186 176 174 172 163 156 147 147 142 134 119 100 63 43 30 45 351 9 17 38 49 89 124 135 148 156 158 156 171 154 140 137 148 161 166 168 184 177 182 189
180 165 169 161 170 159 149 149 144 144 139 127 124 106 89 90 29 26 37 21 359 356 32 45 94 142 145 151 165 173 177 169 160 163 155 157 160 173 181 187 194 199 223
169 147 156 140 135 143 138 144 147 137 123 123 124 119 112 62 21 5 12 18 15 340 21 57 131 148 140 141 135 175 152 144 165 178 180 174 178 183 187 186 186 195 193
154 144 141 126 128 145 141 136 140 154 146 150 148 175 152 18 1 355 5 15 7 27 11 174 161 156 147 149 157 160 146 160 183 194 191 187 187 184 179 179 182 189 191
148 137 138 127 120 133 142 141 149 163 165 146 145 158 133 70 19 6 8 3 354 14 18 88 166 166 177 174 159 162 193 197 184 211 190 178 174 183 194 192 193 193 193
152 148 142 131 135 124 118 106 106 93 76 131 107 99 33 62 16 19 19 17 355 337 74 95 173 183 202 213 223 198 197 182 198 196 196 176 186 194 201 218 215 214 199
146 151 142 141 138 145 142 122 127 130 140 122 118 106 73 62 350 359 3 1 1 9 36 68 62 81 226 243 254 253 223 199 202 198 202 200 195 197 186 207 259 263 212
161 159 154 158 157 158 155 148 133 133 134 121 112 97 110 21 3 315 300 352 347 60 40 47 58 48 36 25 13 296 269 252 215 203 221 230 237 200 208 238 203 232 277
165 164 160 160 161 163 159 157 148 140 137 133 120 100 58 60 30 16 37 333 276 30 39 34 39 27 36 26 11 7 9 304 243 226 237 238 234 236 233 227 224 222 238
158 156 153 155 150 152 147 146 132 131 143 143 133 115 81 92 59 44 86 307 272 248 186 1 11 3 3 7 4 2 17 351 290 248 252 240 245 255 242 234 225 225 242
159 154 148 144 152 152 151 143 139 140 134 140 131 140 137 92 87 27 26 301 266 277 284 298 317 335 339 355 357 349 2 5 347 341 282 254 247 241 258 255 228 222 223
137 136 138 151 160 156 149 144 148 137 145 156 139 101 136 93 95 312 312 7 333 310 305 302 296 321 339 343 348 349 356 350 347 337 322 306 281 273 248 246 253 230 223
136 143 145 142 145 148 140 133 137 140 143 148 117 120 86 89 136 146 126 354 333 318 313 330 323 333 352 348 337 334 332 339 352 333 327 319 307 290 278 276 246 234 223
125 129 131 132 129 126 121 121 125 134 133 123 126 100 107 122 171 159 163 152 250 322 320 337 336 352 4 357 351 330 328 352 341 330 324 322 311 298 288 278 278 246 224
122 126 123 120 115 118 130 143 143 140 127 117 103 120 129 136 169 172 180 181 141 307 309 320 336 346 342 342 341 330 312 338 335 321 316 308 301 299 293 278 275 270 251
118 125 120 123 132 132 137 144 132 119 116 127 134 126 133 155 161 173 156 235 252 279 302 322 334 328 325 323 318 323 296 309 313 309 312 301 292 287 282 281 275 272 267
124 123 129 133 137 140 132 121 119 124 128 129 130 141 144 150 151 161 153 304 318 310 310 328 323 323 319 312 310 304 311 318 316 312 304 296 289 282 276 270 269 264 266
Height
776 780 785 788 791 794 795 797 799 800 801 801 801 801 800 799 798 797 795 792 790 787 784 782 779 776 774 774 776 779 781 784 787 792 795 797 801 805 807 809 811 814 817
769 774 778 783 785 788 789 792 794 796 797 798 798 798 797 797 796 793 791 790 788 785 781 778 775 772 771 772 773 776 779 781 784 789 795 798 801 805 807 809 812 815 818
762 767 772 775 778 780 784 787 789 791 792 794 794 795 795 794 793 791 790 787 785 782 780 777 773 771 769 770 772 774 777 781 785 789 794 799 802 805 807 809 812 814 817
756 760 765 768 771 775 778 782 784 786 788 790 791 792 792 792 791 789 787 785 783 780 777 774 772 770 768 768 770 772 776 780 784 785 794 798 803 805 807 808 811 812 816
750 754 758 763 767 770 774 777 780 782 784 787 788 789 790 789 787 785 784 783 781 779 777 774 772 769 767 767 769 772 777 780 784 782 792 798 801 803 805 806 807 812 817
745 749 754 758 763 766 768 772 775 779 782 785 787 788 787 788 785 785 783 782 781 779 777 774 772 769 768 768 770 773 777 779 783 781 786 791 798 800 802 805 805 811 813
739 744 748 753 757 761 765 768 772 776 780 782 785 786 787 785 785 784 783 782 781 780 777 775 772 770 769 769 773 777 780 782 784 786 786 788 795 798 802 806 807 810 812
735 738 742 746 751 756 760 764 769 774 778 781 783 785 786 785 785 784 783 783 782 781 779 776 775 773 772 771 774 778 781 785 786 786 789 791 794 798 803 806 808 811 814
731 735 737 741 746 751 756 762 767 771 775 779 783 785 786 785 784 783 783 783 783 782 781 778 778 777 776 776 776 778 780 785 786 788 790 792 795 798 802 806 810 811 811
726 734 738 743 744 749 755 760 765 769 774 778 782 783 784 785 784 783 783 783 784 783 782 781 778 778 778 779 779 779 781 783 785 788 791 794 797 800 802 804 806 808 808
727 730 737 741 749 750 754 759 763 767 773 777 781 783 784 784 784 784 784 785 784 783 782 782 781 780 780 781 782 782 781 780 784 788 790 794 798 800 801 803 804 806 806
728 725 740 734 744 756 754 759 764 767 770 777 782 784 784 785 784 784 784 783 782 783 782 781 781 781 781 782 785 785 785 787 788 788 788 790 794 797 798 800 803 805 806
725 730 736 733 736 757 759 762 768 768 770 773 779 782 783 785 786 784 784 784 783 783 783 781 780 781 781 781 782 784 787 789 789 788 788 789 792 795 796 798 801 803 805
727 728 731 734 736 755 761 758 766 769 769 769 774 778 781 784 785 785 784 785 785 784 783 783 783 784 785 784 785 787 788 788 788 787 788 791 793 797 799 799 798 799 801
727 729 732 735 737 741 759 760 764 772 773 774 775 779 782 783 786 785 785 785 785 785 783 783 783 784 786 786 786 786 787 788 791 791 790 791 793 795 797 800 799 797 798
724 729 732 737 738 748 752 751 758 766 773 772 779 780 783 784 786 785 784 785 784 784 785 784 785 783 783 785 786 786 786 787 788 789 791 791 791 792 794 797 799 799 797
721 725 731 736 739 745 750 750 742 762 760 765 777 778 783 782 785 785 784 785 786 785 787 787 785 784 784 784 784 785 786 788 788 790 790 791 790 790 794 796 795 798 799
717 723 728 733 737 742 746 751 751 749 758 768 772 772 780 779 785 785 783 786 788 786 788 788 787 787 785 786 786 785 785 784 785 787 788 787 788 788 789 792 794 796 795
715 720 725 733 738 743 745 753 755 757 762 768 768 774 772 783 784 784 783 785 786 787 787 789 789 789 789 787 786 785 783 782 783 782 783 785 786 786 785 787 789 791 791
713 715 723 732 740 745 750 753 757 762 766 770 767 772 775 773 782 785 786 787 786 788 786 788 791 789 788 787 786 787 785 782 782 780 780 780 781 783 783 781 783 786 786
710 708 715 729 738 745 749 752 758 759 765 771 772 767 771 767 781 786 789 788 788 788 789 790 789 788 788 788 786 785 785 786 783 783 780 778 777 777 780 779 779 780 782
707 705 719 732 736 746 750 753 758 761 765 768 765 774 762 776 786 787 789 790 790 792 791 790 789 787 785 785 785 785 786 786 783 782 781 778 776 774 774 775 775 775 777
720 725 723 736 738 745 750 756 759 762 764 766 769 764 773 782 789 788 788 788 790 790 791 789 788 786 784 783 782 787 783 780 783 782 781 778 777 774 771 771 772 770 771
723 727 735 739 740 747 753 759 762 764 764 767 769 774 779 781 788 789 789 789 787 790 791 789 786 786 785 784 782 783 785 779 779 780 778 776 776 774 770 767 766 765 765
728 732 735 739 744 751 758 762 762 762 763 770 776 778 780 785 786 788 788 788 787 788 789 787 783 784 785 784 782 781 781 776 775 776 774 772 771 770 768 763 761 760 760
730 735 741 746 750 753 754 757 762 766 771 775 776 781 784 786 787 787 786 787 787 787 787 783 783 782 781 782 780 777 776 770 769 769 767 766 764 762 760 758 757 756 754